Flag for U.S.A. Weather past 2 weeks in Midland, Texas, U.S.A.

Now
60 °F

Clear.


Feels Like: 60 °F
Forecast: 59 / 86 °F
Wind: 5 mph from South

Location: Midland - Midland Airpark

Current Time: May 3, 2015 at 6:52:13 AM

Latest Report: May 3, 2015 at 6:15 AM


Visibility: 10 mi

Pressure: 29.94 "Hg

Humidity: 64%

Dew point: 48 °F

Location of MidlandLocation

Historic Weather in Midland — Graph

°F

Midland temperature yesterday

Maximum temperature yesterday: 87 °F (at 4:55 PM)
Minimum temperature yesterday: 58 °F (at 6:15 AM)
Average temperature yesterday: 73 °F

Past Weeks' High & Low Weather Summary

 TemperatureHumidityPressure
High87 °F (Apr 22, 3:55 PM)100% (Apr 18, 5:55 AM)30.23 "Hg (Apr 18, 5:55 AM)
Low43 °F (Apr 29, 3:55 AM)9% (Apr 18, 6:15 PM)29.57 "Hg (Apr 26, 4:55 PM)
Average67 °F40%29.94 "Hg
* Reported Apr 18 5:15 AM — May 3 5:15 AM, Midland, Weather by CustomWeather, © 2015

Note: Actual official high and low records may vary slightly from our data, if they occured in-between our weather recording intervals... More about our weather records

Advertising

Midland weather history for previous 24 hours

 ConditionsComfort  
Time TempWeatherWind HumidityBarometerVisibility
5:15 AM
Sun, May 3
62 °FClear.10 mph60%29.93 "Hg10 mi
4:55 AM62 °FClear.12 mph58%29.93 "Hg10 mi
4:35 AM63 °FClear.12 mph57%29.93 "Hg10 mi
4:15 AM63 °FClear.12 mph55%29.94 "Hg10 mi
3:55 AM64 °FClear.12 mph54%29.94 "Hg10 mi
3:35 AM64 °FClear.14 mph53%29.94 "Hg10 mi
3:15 AM64 °FClear.12 mph51%29.95 "Hg10 mi
2:55 AM65 °FClear.12 mph50%29.95 "Hg10 mi
2:35 AM66 °FClear.12 mph48%29.95 "Hg10 mi
2:15 AM66 °FClear.13 mph47%29.96 "Hg10 mi
1:55 AM67 °FClear.12 mph45%29.96 "Hg10 mi
1:35 AM68 °FClear.15 mph43%29.96 "Hg10 mi
1:15 AM68 °FClear.14 mph42%29.96 "Hg10 mi
12:55 AM68 °FClear.15 mph42%29.97 "Hg10 mi
12:35 AM69 °FClear.13 mph40%29.97 "Hg10 mi
12:15 AM69 °FClear.13 mph39%29.97 "Hg10 mi
11:55 PM
Sat, May 2
69 °FClear.13 mph37%29.97 "Hg10 mi
11:35 PM71 °FClear.13 mph34%29.97 "Hg10 mi
11:15 PM72 °FClear.14 mph32%29.96 "Hg10 mi
10:55 PM73 °FClear.14 mph30%29.96 "Hg10 mi
10:15 PM75 °FClear.15 mph27%29.95 "Hg10 mi
9:55 PM76 °FClear.15 mph25%29.95 "Hg10 mi
9:35 PM76 °FClear.12 mph25%29.94 "Hg10 mi
9:15 PM77 °FSunny.13 mph25%29.93 "Hg10 mi
8:55 PM79 °FSunny.12 mph24%29.93 "Hg10 mi
8:35 PM80 °FSunny.14 mph24%29.92 "Hg10 mi
8:15 PM81 °FSunny.10 mph24%29.92 "Hg10 mi
7:55 PM82 °FSunny.15 mph22%29.91 "Hg10 mi
7:35 PM83 °FSunny.14 mph22%29.91 "Hg10 mi
7:15 PM84 °FSunny.12 mph21%29.91 "Hg10 mi
6:55 PM85 °FSunny.14 mph19%29.91 "Hg10 mi
6:35 PM85 °FSunny.16 mph20%29.91 "Hg10 mi
6:15 PM86 °FSunny.15 mph19%29.92 "Hg10 mi
5:55 PM86 °FSunny.13 mph19%29.92 "Hg10 mi
5:15 PM86 °FSunny.13 mph18%29.93 "Hg10 mi
4:55 PM87 °FSunny.12 mph18%29.94 "Hg10 mi
4:15 PM86 °FSunny.14 mph19%29.95 "Hg10 mi
3:55 PM86 °FSunny.16 mph19%29.96 "Hg10 mi
3:35 PM86 °FSunny.16 mph19%29.97 "Hg10 mi
3:15 PM85 °FSunny.17 mph18%29.98 "Hg10 mi
2:55 PM84 °FSunny.15 mph19%30.00 "Hg10 mi
2:35 PM84 °FSunny.16 mph20%30.01 "Hg10 mi
2:15 PM84 °FSunny.15 mph21%30.02 "Hg10 mi
1:55 PM83 °FSunny.16 mph20%30.03 "Hg10 mi
1:35 PM83 °FSunny.15 mph22%30.04 "Hg7 mi
1:15 PM82 °FSunny.18 mph24%30.05 "Hg7 mi
12:55 PM81 °FSunny.16 mph24%30.06 "Hg10 mi
12:35 PM81 °FSunny.18 mph25%30.07 "Hg10 mi
12:15 PM80 °FSunny.16 mph26%30.07 "Hg10 mi
11:55 AM79 °FSunny.17 mph28%30.08 "Hg10 mi
11:35 AM78 °FSunny.18 mph30%30.08 "Hg10 mi
11:15 AM76 °FSunny.14 mph31%30.09 "Hg10 mi
10:55 AM75 °FSunny.15 mph33%30.09 "Hg7 mi
10:35 AM73 °FSunny.15 mph35%30.09 "Hg10 mi
10:15 AM72 °FSunny.13 mph38%30.09 "Hg10 mi
9:55 AM71 °FSunny.14 mph40%30.09 "Hg10 mi
9:35 AM69 °FSunny.15 mph41%30.09 "Hg10 mi
9:15 AM67 °FSunny.13 mph45%30.09 "Hg10 mi
8:55 AM67 °FSunny.7 mph44%30.08 "Hg10 mi
8:35 AM65 °FSunny.12 mph47%30.08 "Hg10 mi
8:15 AM64 °FSunny.8 mph49%30.08 "Hg10 mi
7:55 AM62 °FClear.9 mph51%30.07 "Hg10 mi
7:35 AM61 °FClear.8 mph52%30.06 "Hg10 mi
7:15 AM60 °FClear.8 mph53%30.05 "Hg10 mi
6:55 AM60 °FClear.9 mph50%30.04 "Hg10 mi
6:35 AM60 °FClear.9 mph49%30.04 "Hg10 mi
6:15 AM58 °FClear.7 mph48%30.04 "Hg10 mi
Weather by CustomWeather, © 2015

See weather overviewHow to use our weather pages